Theta_e
346 345 345 346 348 347 346 347 347 345 344 343 341 341 340 340 340 340 342 342 341 337 330 327 327 329 331 334 336 336 336 337 338 339 340 340 341 341 342 342 342 342 342 342 342 342 342 341 340 340 341 341 341 341 341 340 339 341 338 334 333 334 336 337 338 339 340 341 342 342 342 342 342 341 340 339 336 334 334 335 337 339 341 342 342
345 345 345 345 347 347 346 347 347 347 344 342 340 340 340 340 340 341 343 342 339 331 326 327 328 331 334 336 337 336 337 338 338 339 339 340 341 341 341 342 342 341 341 341 342 342 340 340 340 340 341 341 341 341 342 341 340 342 340 336 334 333 335 337 339 339 340 341 341 341 341 341 342 341 339 337 334 334 334 335 335 336 338 341 343
345 345 345 344 345 345 345 346 347 347 344 341 340 341 342 341 341 342 342 339 331 327 327 329 331 333 336 337 337 337 337 338 339 339 340 341 341 340 341 342 342 341 341 341 342 341 339 340 339 340 340 341 342 342 342 341 341 342 340 338 336 335 334 335 339 340 341 341 341 341 341 341 341 339 337 336 335 336 337 336 336 335 336 340 342
345 346 345 344 343 343 344 344 345 345 343 342 340 341 342 341 342 341 339 332 326 327 329 330 332 333 336 337 337 337 337 338 339 340 340 341 340 340 341 341 341 341 341 341 340 339 339 340 340 340 341 342 343 343 342 342 342 342 341 339 338 337 336 334 336 339 341 341 341 341 341 341 339 337 336 336 337 337 338 338 337 336 336 339 340
345 346 344 344 343 343 343 343 343 343 342 341 339 340 341 341 340 337 333 328 326 329 330 330 332 334 336 337 337 337 337 339 339 340 340 340 340 340 340 340 340 340 341 340 340 339 340 340 341 341 341 342 342 342 342 342 342 342 341 341 338 337 337 335 335 337 340 340 340 341 340 340 338 336 337 338 337 337 338 338 338 337 337 337 339
343 345 344 343 343 342 343 342 342 342 341 341 341 341 341 339 334 330 328 326 328 330 330 332 334 335 336 336 336 337 338 339 339 340 340 339 339 338 339 340 340 340 340 340 340 340 340 340 340 341 341 341 341 341 341 341 342 341 341 341 339 337 336 337 335 332 334 337 339 341 341 340 339 337 339 339 338 338 339 339 338 338 337 337 338
342 344 344 343 343 341 341 342 342 343 343 343 342 342 340 334 328 326 327 328 330 330 331 333 334 335 336 336 336 336 338 338 338 339 339 338 338 338 338 339 339 340 340 341 341 341 340 341 340 340 340 340 341 341 340 340 341 341 341 341 340 338 336 336 336 331 331 334 337 340 341 340 340 339 339 339 338 338 339 339 339 338 338 336 337
343 344 343 343 343 340 340 341 343 344 345 344 342 340 336 330 326 326 329 331 331 331 332 333 333 335 336 336 336 337 337 337 338 338 338 338 338 338 339 339 339 339 340 340 341 341 341 341 340 340 340 341 341 341 341 341 340 341 341 341 341 338 335 336 336 334 333 335 338 340 341 340 340 340 339 339 338 337 337 339 339 339 339 338 337
343 345 344 343 342 339 339 340 342 344 344 343 342 338 332 327 326 327 332 332 332 333 332 332 333 335 336 336 337 337 336 336 337 338 338 338 338 339 338 339 339 339 340 340 341 341 340 341 340 340 340 341 341 342 341 341 341 341 341 341 342 339 336 336 335 335 337 338 339 341 342 341 340 340 339 339 338 336 336 339 340 339 340 339 339
344 345 344 344 342 339 338 339 341 342 342 342 340 335 330 327 327 329 331 331 332 331 331 332 332 333 335 336 337 337 336 335 337 338 339 339 339 339 339 339 339 339 339 340 341 340 340 341 341 341 341 341 341 341 341 341 341 342 342 341 342 341 338 337 334 334 338 339 340 341 341 341 341 340 339 339 338 337 337 338 340 341 341 340 340
345 345 344 344 342 340 339 338 340 340 340 341 338 334 331 329 329 331 330 329 330 330 331 331 331 332 334 336 336 337 336 335 337 339 339 340 340 339 339 339 338 338 338 339 340 339 339 340 341 342 342 342 342 341 341 341 341 341 342 341 342 341 339 337 334 333 336 338 340 341 341 341 341 341 339 339 339 339 338 337 338 340 341 340 341
345 345 344 344 342 341 341 340 340 339 339 340 338 335 332 330 330 330 329 329 330 330 330 330 330 332 334 335 336 336 335 335 337 338 339 339 339 338 338 338 338 338 338 339 340 341 341 340 340 341 342 342 342 341 341 341 341 341 341 341 341 340 339 336 334 334 334 336 339 341 341 341 341 341 340 340 340 340 340 338 337 338 340 341 341
344 344 344 343 342 342 342 341 340 338 338 338 337 336 332 331 331 330 329 330 330 330 330 330 331 333 335 336 336 336 334 334 336 338 339 338 337 337 337 338 339 340 341 341 341 341 341 339 338 339 340 340 340 341 341 341 341 341 341 341 341 341 340 338 336 334 333 335 337 339 340 341 341 340 340 340 341 341 341 340 337 337 339 340 340
344 344 343 344 343 342 342 341 340 338 338 338 337 336 332 331 331 330 330 330 330 330 330 332 332 334 336 336 336 336 334 334 336 337 338 338 337 337 337 338 339 340 342 343 343 341 339 338 337 338 338 339 340 341 342 342 341 341 341 341 341 341 341 340 337 333 333 335 335 337 339 341 341 341 341 340 341 341 341 340 338 336 337 338 339
344 344 344 344 344 343 342 341 339 339 338 338 337 335 331 331 331 331 330 330 330 329 330 332 333 334 336 337 336 334 333 334 336 337 338 338 337 337 336 337 338 338 340 341 341 339 338 338 338 338 338 338 339 341 342 342 341 341 341 340 341 342 341 340 337 334 334 335 335 335 338 341 341 341 342 341 341 342 341 341 340 337 336 337 338
344 344 345 345 344 344 343 341 339 338 339 338 337 334 331 331 331 331 330 330 330 330 330 331 333 334 335 336 334 333 333 334 336 337 338 338 337 337 338 338 338 338 338 338 338 338 338 338 338 338 338 339 340 341 342 342 341 341 341 340 340 341 342 341 338 335 335 335 336 335 337 340 341 342 342 342 342 342 342 342 341 339 336 336 336
343 343 345 345 345 344 343 341 339 338 339 339 337 334 332 331 331 331 330 330 330 330 330 330 333 333 333 335 333 332 333 334 335 337 339 339 337 338 340 339 339 339 338 337 337 338 339 338 337 337 338 338 338 338 340 340 341 341 341 341 340 340 342 342 339 335 334 334 335 335 337 340 341 342 342 342 342 342 342 341 341 339 338 336 335
343 343 345 345 345 345 343 342 340 338 338 338 337 335 333 331 331 331 331 331 330 330 329 329 332 333 334 335 333 331 333 334 335 337 338 339 338 338 339 339 340 340 339 338 339 340 341 339 338 337 337 337 337 336 338 338 339 340 341 341 340 340 341 342 341 337 335 334 334 334 336 339 339 341 342 342 342 341 341 340 339 340 339 337 335
343 344 346 345 345 345 343 342 341 339 338 338 338 335 333 332 331 331 332 332 331 330 328 329 332 334 334 336 333 331 332 333 335 337 338 340 340 339 338 338 339 339 339 340 340 342 342 341 340 339 339 339 339 338 339 339 339 339 339 340 341 341 341 341 341 340 338 336 335 334 334 337 339 340 342 341 340 340 339 338 338 339 339 339 337
344 344 346 346 345 345 344 343 342 340 339 338 337 336 334 332 332 332 332 332 331 330 328 330 334 336 336 337 334 332 334 334 336 338 338 341 341 339 337 337 337 338 340 340 341 342 342 343 342 341 341 341 340 339 340 339 339 339 338 339 340 340 340 341 341 341 341 338 337 335 334 335 338 340 340 341 340 339 338 336 337 338 339 339 338
344 344 345 347 346 345 344 343 343 341 339 337 336 337 335 332 332 332 332 332 331 330 330 332 336 338 338 338 335 333 335 336 338 339 340 341 341 339 337 335 335 336 340 341 342 343 343 343 343 343 341 339 339 339 339 337 336 337 338 339 340 340 341 340 340 341 341 340 339 337 334 334 336 339 340 341 341 339 337 336 335 336 338 339 338
345 344 345 346 346 346 344 344 343 341 339 338 336 335 334 333 333 333 334 335 334 333 333 336 338 340 340 339 336 333 334 336 337 338 339 340 339 339 338 336 335 336 339 341 342 343 344 343 342 343 342 339 338 338 338 336 334 334 336 338 339 340 342 341 340 340 340 340 340 339 336 334 335 338 340 341 341 339 338 336 336 336 338 339 338
345 345 346 347 346 346 346 345 342 340 341 340 338 336 336 337 337 338 339 338 338 337 337 339 339 341 340 339 336 332 333 335 336 337 338 338 338 339 340 339 336 335 339 342 342 344 344 343 342 343 343 340 337 337 338 336 336 334 334 336 336 337 339 342 342 341 341 339 340 340 338 336 336 338 340 341 340 339 339 337 336 336 337 338 338
346 345 346 347 348 346 346 346 343 342 343 342 340 340 340 341 341 342 342 340 339 339 340 340 340 340 339 339 335 332 334 335 336 337 337 337 338 339 340 340 338 336 338 342 343 344 343 343 344 344 344 341 337 337 337 336 335 334 334 334 335 335 335 338 341 343 342 340 340 340 339 338 337 338 340 340 340 339 339 338 336 336 337 337 338
346 345 345 346 347 348 347 346 345 344 344 344 343 343 343 344 342 341 341 339 339 341 341 339 340 339 337 336 333 331 333 335 336 338 338 338 339 342 342 341 341 339 340 343 344 344 343 343 344 344 344 343 339 337 337 337 335 333 333 334 334 335 335 335 338 343 344 341 342 342 340 339 339 339 340 340 340 340 339 339 338 337 337 337 337
346 344 342 342 344 346 347 346 346 345 345 345 344 343 344 344 342 339 338 338 339 340 340 338 340 338 335 333 331 331 333 335 337 339 338 338 340 343 343 342 342 342 342 343 344 344 344 344 344 344 343 343 341 339 338 337 335 334 334 335 335 335 335 334 336 341 342 341 341 341 340 340 340 340 340 340 340 339 339 340 339 338 338 337 337
344 341 339 339 341 344 345 345 345 346 345 345 344 342 343 343 342 340 338 338 338 339 338 338 339 338 334 332 330 331 332 335 338 340 339 337 340 344 343 342 342 343 343 343 344 344 345 344 345 344 343 343 342 340 339 339 337 335 335 336 336 335 335 335 336 337 338 337 336 337 338 339 340 340 340 341 340 339 340 340 339 339 339 338 338
341 339 338 337 338 341 343 344 344 345 346 344 343 342 341 342 342 341 339 338 338 338 337 338 339 337 334 331 330 332 334 335 338 341 340 339 341 344 344 342 342 343 344 343 344 344 345 345 345 345 345 344 343 341 339 339 338 336 335 336 337 336 336 336 336 336 335 334 333 333 335 336 339 340 340 341 341 340 340 339 339 339 339 338 339
341 340 339 337 337 338 340 342 342 343 344 343 342 342 341 341 341 341 339 337 337 337 336 337 337 335 331 330 331 333 336 336 338 341 342 341 341 344 344 343 343 343 344 344 344 344 345 346 346 346 346 345 345 344 340 339 338 336 334 336 337 336 335 336 336 337 335 334 334 333 334 334 336 339 340 341 342 342 341 340 339 339 339 338 339
341 341 340 339 338 338 339 340 341 342 342 343 342 341 340 340 339 338 337 336 336 336 335 335 334 332 329 330 331 334 337 336 338 341 342 343 343 343 344 345 344 344 344 344 345 345 345 345 346 346 346 345 345 345 342 340 339 338 336 335 336 336 335 335 335 336 335 334 334 335 336 334 334 337 339 341 341 342 342 341 340 339 339 339 339
342 342 341 340 339 339 340 341 341 342 342 342 342 340 339 339 338 337 336 336 336 335 334 333 331 330 329 330 332 335 338 337 339 342 343 345 344 344 345 345 346 345 345 346 346 346 346 346 346 346 346 345 344 344 342 341 339 339 337 335 334 334 335 335 334 334 335 334 333 334 336 335 334 336 339 340 340 341 341 341 341 340 339 339 339
342 341 341 341 340 340 341 341 341 342 342 342 340 338 337 336 336 336 336 336 335 334 333 331 329 329 330 331 332 335 339 339 340 342 344 346 346 345 345 346 346 346 346 346 346 346 346 347 346 346 346 345 345 345 342 340 339 338 338 338 336 333 334 336 335 334 335 335 333 334 336 336 336 336 337 338 339 340 341 342 342 341 340 340 339
341 340 340 340 340 340 340 341 341 341 341 339 337 336 335 335 336 336 336 336 335 334 332 330 329 329 331 332 333 335 339 341 341 343 345 346 346 346 346 346 346 347 347 346 346 347 347 347 347 346 347 346 346 346 344 341 339 339 338 339 337 332 331 335 335 335 335 335 334 334 336 337 337 336 336 336 337 339 341 341 342 341 341 341 341
339 339 340 340 339 340 341 341 341 340 338 336 336 335 335 336 336 337 337 336 335 333 331 330 329 331 332 333 333 335 339 341 342 344 345 346 347 347 347 347 347 347 346 346 346 347 347 348 348 347 347 347 346 345 345 344 341 340 339 339 335 329 329 333 334 334 334 334 334 335 336 337 337 337 337 336 336 336 338 341 342 342 341 341 341
338 338 338 338 339 340 340 340 339 337 336 335 335 335 336 336 337 338 338 336 334 333 331 330 330 332 333 334 335 336 339 341 343 344 345 346 346 346 347 347 347 346 346 346 346 346 346 347 347 347 347 348 347 345 345 345 343 341 340 339 335 329 331 335 335 335 334 334 334 335 336 336 337 338 337 337 336 335 335 337 340 341 341 341 341
336 335 336 336 337 338 337 337 336 335 335 336 335 336 336 337 338 338 337 336 334 332 331 331 331 332 333 335 337 338 340 341 342 343 344 345 345 345 345 345 346 346 345 346 345 345 345 346 346 346 346 347 346 346 345 345 345 342 340 339 335 331 333 336 336 335 335 334 335 336 336 335 335 336 338 338 337 337 336 335 336 337 339 340 341
335 334 334 334 335 336 335 336 335 336 336 336 336 336 337 337 338 338 337 336 334 332 332 331 331 332 333 335 337 339 340 341 341 342 343 344 344 343 343 344 344 344 344 345 344 344 343 344 344 344 345 346 346 346 346 346 345 343 341 339 336 331 333 336 336 336 335 336 336 336 336 334 333 333 336 337 337 338 339 338 337 336 336 338 339
337 335 334 334 334 334 335 335 336 336 337 337 337 337 337 337 337 338 337 336 334 333 332 332 332 332 333 335 337 339 341 342 342 343 344 345 345 344 344 345 345 344 343 343 343 343 343 342 343 343 344 346 346 346 346 346 345 343 342 340 336 331 331 335 336 335 335 337 337 336 335 333 332 331 331 332 334 337 339 340 339 338 337 336 336
339 337 337 335 335 335 335 335 336 337 337 337 337 337 337 337 337 338 337 336 335 333 332 332 332 333 333 335 336 338 341 343 344 346 347 348 348 347 347 348 347 346 345 344 343 342 342 343 343 343 345 346 346 346 346 347 346 343 342 340 337 334 332 334 336 336 334 336 336 336 336 334 332 330 329 329 330 332 335 338 339 339 339 337 336
338 338 338 337 336 336 336 336 336 337 337 338 338 338 338 337 337 337 337 336 335 333 332 333 334 334 335 336 336 338 342 345 346 347 349 349 349 348 349 349 348 347 346 344 343 343 343 343 344 344 346 347 346 346 346 346 346 344 342 340 338 337 335 333 336 336 335 335 335 336 336 335 332 330 329 328 328 328 329 332 335 336 338 338 336
339 338 337 337 336 336 336 336 336 337 337 338 338 338 337 337 337 337 337 336 334 333 333 334 335 336 337 337 338 340 343 345 347 348 349 349 349 349 350 349 348 347 345 344 343 343 344 344 345 346 346 346 345 345 345 345 346 344 342 340 338 338 336 332 334 337 336 335 335 335 335 335 334 331 329 327 326 326 325 327 329 330 332 334 335
341 339 338 336 336 336 336 336 336 337 337 337 337 337 336 335 336 337 337 337 335 334 334 336 337 337 338 339 340 342 344 346 347 348 348 348 349 350 350 350 349 347 345 344 344 345 345 345 345 346 347 346 345 345 344 345 345 343 341 340 338 337 333 330 332 336 336 335 335 335 334 335 335 331 329 328 325 324 324 324 325 325 325 326 329
344 342 339 338 337 337 337 337 337 337 336 337 336 336 335 335 335 336 337 338 337 335 335 337 338 339 339 340 342 343 344 346 347 347 347 347 349 350 351 350 349 347 346 346 347 347 346 345 345 346 346 345 345 344 344 344 343 342 340 338 338 336 334 333 334 335 335 334 333 335 335 334 335 331 328 327 323 321 324 325 326 325 324 324 326
345 345 343 341 339 338 338 337 337 337 337 337 336 336 336 335 336 336 338 339 339 339 338 337 338 340 341 341 342 342 343 345 345 345 345 347 348 349 350 351 350 349 348 348 348 348 347 345 345 346 346 345 345 344 345 344 343 343 339 336 335 335 337 338 337 334 333 333 332 334 335 334 334 331 328 328 323 321 326 328 328 327 326 325 325
345 345 344 343 340 338 338 337 337 337 337 337 336 336 336 336 337 337 338 339 340 341 340 339 338 339 341 342 342 342 342 343 344 344 344 345 348 349 350 350 350 350 349 349 348 347 347 346 345 345 345 345 345 345 345 344 344 343 337 334 335 336 338 338 338 335 332 332 332 334 335 335 335 332 328 327 323 323 328 329 329 329 328 326 324
344 344 344 342 340 338 338 337 337 337 337 337 337 338 337 337 337 337 338 339 340 340 340 340 338 338 340 342 342 342 342 343 343 344 344 345 347 349 350 350 350 350 350 349 348 347 347 347 345 345 345 345 345 345 345 343 341 338 333 333 335 337 339 337 338 338 334 333 333 334 336 334 334 332 328 326 324 324 328 330 330 330 330 329 325
342 343 344 343 340 339 338 337 337 337 337 337 337 338 338 337 337 338 338 338 338 338 338 339 339 339 339 341 342 342 342 342 343 344 344 345 347 349 349 350 350 350 350 349 348 348 348 348 345 344 345 345 342 341 343 342 337 331 330 334 335 336 338 338 338 339 337 336 335 335 336 334 334 332 328 326 326 326 328 329 330 330 330 330 327
342 342 344 343 341 339 338 338 337 337 337 338 338 339 338 338 338 338 339 339 338 337 337 338 339 339 339 340 341 342 342 342 342 343 344 345 346 347 349 349 350 350 350 349 348 348 349 348 346 343 343 342 339 336 339 338 333 329 330 335 337 336 337 337 338 339 339 338 337 335 335 335 334 334 330 327 326 327 327 328 330 331 330 331 330
342 342 341 342 342 341 340 339 338 338 338 338 339 339 339 339 339 339 339 339 339 338 338 337 338 339 340 340 340 340 341 342 342 342 343 344 345 346 348 349 348 348 348 348 348 348 348 347 346 343 340 339 335 334 334 331 330 331 331 333 336 336 336 336 336 337 338 339 339 337 335 334 334 334 331 328 327 327 327 327 329 331 331 331 331
341 340 340 341 342 343 343 342 340 339 339 339 339 339 339 339 339 339 339 338 339 339 338 338 337 338 339 340 339 339 340 340 341 341 342 343 344 345 346 346 346 346 347 348 348 348 348 347 345 342 339 336 332 331 330 327 327 331 333 334 335 335 334 335 335 336 337 337 338 338 336 335 335 335 333 330 328 327 328 328 328 330 332 331 331
343 342 341 341 343 344 345 344 342 341 340 340 339 340 339 339 339 338 338 338 338 338 338 338 337 337 338 338 338 338 338 338 339 341 341 342 342 343 343 344 344 346 347 348 348 348 348 346 344 341 337 333 330 329 327 325 325 329 333 334 334 334 334 333 335 335 336 337 337 337 337 336 335 335 333 332 329 328 328 328 328 329 331 332 331
Wind_Speed
23 24 25 25 25 25 26 26 26 28 29 28 28 28 26 25 24 23 22 21 21 21 21 20 19 18 17 16 15 14 13 13 13 13 13 13 12 12 12 12 11 11 11 11 10 10 9 9 8 7 6 5 6 6 6 7 7 8 9 9 9 8 8 10 10 8 8 8 8 9 10 10 10 10 9 9 9 9 10 10 11 11 11 12 13
25 25 25 27 25 24 24 24 25 26 28 27 28 28 26 24 23 21 21 21 21 21 21 19 17 17 17 16 15 14 13 13 14 13 13 12 11 11 11 11 10 11 10 10 10 9 9 8 7 6 6 5 6 6 6 7 7 8 9 9 9 9 8 9 10 10 9 8 8 9 10 9 9 10 10 10 10 10 11 11 11 10 10 12 13
26 25 25 26 26 24 22 23 24 25 27 27 27 27 24 22 22 20 20 21 21 21 20 18 17 17 16 15 14 14 14 14 14 13 12 12 11 11 11 10 10 10 10 10 9 9 9 8 7 7 6 6 6 6 6 6 6 7 8 8 9 9 9 9 9 10 10 9 9 10 10 9 10 10 11 11 11 11 11 11 11 11 11 12 12
25 24 24 25 25 24 22 22 23 24 26 27 27 26 23 22 21 20 21 22 22 20 18 17 17 16 15 14 14 14 14 14 14 13 12 11 11 11 10 10 9 9 9 9 8 8 8 7 7 7 7 6 6 7 6 5 6 6 7 7 8 9 9 9 8 9 10 10 11 11 10 9 10 11 11 11 11 11 11 11 11 11 12 12 12
25 24 24 24 23 22 23 23 23 24 26 27 27 25 23 22 21 21 22 23 21 19 17 17 16 15 15 14 14 14 14 14 13 13 12 11 11 10 10 10 9 9 9 9 9 8 7 7 7 7 7 7 6 6 5 5 5 5 6 6 7 8 8 9 8 8 9 10 10 10 9 10 10 11 11 10 10 10 11 11 12 12 12 12 12
26 25 24 24 23 22 22 23 24 26 27 28 27 25 23 22 22 23 24 23 20 18 17 16 15 15 14 14 14 14 14 14 13 13 12 11 11 10 10 9 9 8 8 8 8 8 7 7 7 6 6 7 6 6 5 5 6 6 5 6 6 7 7 7 8 8 9 9 9 9 9 9 10 10 10 10 10 10 10 11 12 12 12 12 12
26 26 24 25 24 22 22 22 25 27 28 28 26 25 23 23 24 24 24 21 19 18 17 16 15 15 15 15 14 14 14 13 13 12 12 11 10 10 10 10 9 9 8 8 8 7 7 7 7 6 6 7 6 6 5 5 6 6 6 5 5 6 7 6 7 9 10 9 9 9 9 9 9 9 10 10 11 10 10 11 11 12 12 12 12
27 25 25 25 24 24 24 23 25 26 27 27 26 24 23 24 24 24 22 20 18 17 16 15 14 14 15 14 14 14 13 13 13 12 12 11 10 10 10 10 10 9 9 8 7 7 7 7 6 6 6 7 6 6 5 6 6 6 6 5 5 5 6 6 6 8 9 9 8 9 9 9 9 9 10 10 10 10 10 10 11 11 12 12 12
27 25 25 25 24 25 24 24 25 25 26 26 25 23 23 24 24 23 21 19 18 16 15 15 14 14 14 13 13 13 13 13 13 13 12 11 10 10 10 10 9 9 8 8 7 7 7 7 6 6 6 7 7 6 6 6 6 6 5 5 4 5 6 6 5 7 8 8 7 8 9 10 9 9 10 9 9 10 10 10 10 10 11 11 12
26 25 25 24 24 25 24 24 24 25 25 25 24 23 23 24 24 22 20 18 17 16 15 14 14 13 12 12 12 12 13 14 14 13 12 11 11 10 10 10 9 9 8 8 7 7 7 7 7 6 6 8 7 6 6 6 6 6 5 4 4 5 6 5 5 6 7 7 7 7 8 10 10 9 9 9 9 10 10 9 9 9 10 11 11
26 26 25 23 24 24 24 24 24 24 24 23 23 23 23 24 23 21 19 18 16 15 14 14 13 12 12 12 11 11 12 13 14 13 12 12 11 10 10 9 9 9 9 8 8 7 7 6 6 7 7 7 8 7 6 6 6 6 5 4 4 5 6 5 5 6 6 6 7 7 7 9 9 9 9 9 9 9 9 9 8 9 10 10 10
27 26 25 24 24 24 23 23 23 23 23 23 22 23 24 24 22 20 18 17 16 15 14 13 12 11 11 11 11 11 12 13 13 13 12 12 11 10 10 10 10 10 9 9 9 8 7 7 7 7 7 7 7 7 6 6 6 6 6 5 4 5 6 6 6 5 5 6 6 6 7 8 8 9 9 8 8 9 9 10 8 8 9 9 9
28 26 25 25 25 24 23 22 22 22 22 22 22 23 23 23 21 19 17 16 14 13 12 11 10 11 11 11 11 11 12 12 12 12 12 11 11 10 10 10 10 10 10 9 9 9 8 8 8 7 7 7 7 7 7 6 6 6 6 6 5 5 6 5 5 5 4 4 5 6 6 7 7 8 8 8 8 8 9 10 9 8 8 9 9
29 27 26 25 25 24 23 22 22 22 22 22 22 22 23 22 20 18 16 14 13 12 11 10 10 10 10 11 10 10 11 11 12 12 11 11 11 10 10 10 10 10 10 9 9 9 9 9 9 8 8 7 7 6 7 7 7 6 6 5 5 5 5 5 4 4 4 3 4 5 6 6 6 6 7 7 7 8 8 9 9 8 8 8 8
29 27 27 25 25 24 23 22 22 22 22 21 21 21 22 21 19 17 15 13 12 11 10 9 9 10 10 10 10 10 10 11 11 11 11 11 10 10 10 10 10 10 10 10 9 10 10 11 10 10 9 8 7 7 7 7 7 7 7 6 5 5 5 6 5 4 3 3 3 4 5 6 6 6 6 7 6 7 8 8 9 8 7 8 8
29 27 26 25 25 24 23 22 23 22 22 21 21 21 21 19 18 16 14 12 11 10 9 8 9 9 9 10 9 9 9 10 11 11 11 10 10 10 10 10 10 10 10 10 11 11 11 11 11 10 10 9 8 8 7 6 6 7 7 7 6 6 6 5 5 4 3 3 3 4 4 5 6 5 5 6 6 7 7 7 8 7 7 7 7
28 27 25 25 25 24 23 22 23 22 22 21 20 21 20 19 17 15 14 12 10 9 7 7 8 8 9 9 9 9 9 9 10 10 10 10 10 10 9 9 9 9 9 10 11 11 11 10 10 10 10 9 8 8 7 7 6 6 6 6 6 6 6 5 5 5 4 3 3 3 4 4 5 5 5 6 5 5 6 6 6 6 6 6 6
28 27 25 25 25 23 24 23 23 23 22 21 20 20 20 19 17 15 13 11 10 8 6 6 7 7 8 9 9 8 9 9 9 9 9 10 10 9 9 9 9 8 8 9 10 10 10 10 10 9 9 8 7 7 7 7 7 6 5 6 5 5 5 5 4 4 4 4 3 3 4 4 4 4 5 7 6 5 6 5 5 5 6 6 5
28 27 25 25 25 23 24 23 23 23 22 21 20 20 19 18 17 15 13 11 9 7 6 6 6 7 7 8 8 8 9 9 9 9 8 9 9 8 8 9 8 8 8 8 9 9 9 9 9 9 8 7 7 7 7 6 6 6 5 5 5 5 4 4 3 4 4 4 4 4 4 4 4 3 4 6 5 5 5 4 4 4 5 5 5
28 28 25 24 26 24 24 24 23 23 22 22 21 20 19 18 16 15 12 10 9 7 6 6 7 6 6 7 8 8 8 8 8 8 8 7 7 7 8 8 8 8 7 7 7 8 8 8 8 8 7 5 5 6 6 6 5 5 5 5 5 4 4 4 3 3 3 4 4 4 3 4 4 4 4 5 5 5 5 4 4 4 4 4 4
28 28 26 25 26 24 24 24 23 23 23 22 21 20 19 18 16 15 13 11 10 8 8 7 7 6 6 7 7 8 7 8 8 7 6 6 6 6 6 7 7 7 6 6 6 6 7 6 6 6 6 5 5 6 6 6 5 5 4 4 4 4 4 3 3 3 2 2 3 3 3 4 5 5 5 5 5 5 5 4 4 4 5 5 4
29 29 27 26 26 25 24 23 23 23 22 21 21 20 18 18 17 15 13 12 11 10 9 9 8 7 6 7 7 7 8 8 8 7 6 5 5 5 5 6 7 6 5 6 6 6 5 5 5 5 5 6 5 6 6 6 6 5 4 4 4 3 3 2 3 3 3 2 2 2 3 4 4 5 5 5 5 4 5 5 4 5 5 5 5
29 30 29 27 27 27 24 23 23 23 22 21 20 19 18 17 16 15 14 13 12 11 11 10 9 8 7 7 7 8 8 9 8 8 7 6 5 4 4 4 5 6 5 5 5 5 4 4 4 4 4 5 5 5 6 6 7 6 5 4 4 5 4 2 2 2 3 2 2 2 2 3 4 4 5 5 6 6 5 5 5 5 5 5 5
28 29 30 28 27 28 25 23 24 23 21 20 20 19 18 16 16 15 14 13 13 12 12 11 10 9 8 8 7 8 8 8 8 8 7 6 5 4 4 4 4 5 5 4 4 4 4 3 3 3 3 3 4 4 5 6 7 6 5 4 5 5 5 3 1 1 1 2 2 2 1 2 3 5 5 5 6 6 5 5 5 4 5 5 5
27 29 31 31 29 28 26 25 24 23 21 20 20 19 18 16 16 16 15 14 14 13 12 11 10 9 9 8 8 8 8 8 8 7 6 5 5 5 4 4 4 4 5 5 4 3 3 3 3 3 2 2 2 2 3 4 6 6 5 4 5 5 5 4 2 1 0 1 1 2 1 2 3 4 6 6 6 6 6 6 5 5 5 4 5
28 30 34 34 31 29 27 26 25 24 22 21 20 19 18 17 16 16 16 15 15 13 12 11 11 10 10 9 9 9 9 9 8 7 6 5 5 5 4 4 5 5 5 4 4 3 2 2 2 2 1 1 1 1 1 3 4 5 4 4 5 5 5 5 3 2 1 0 1 1 1 1 3 4 6 6 6 6 6 6 6 6 6 5 5
32 33 35 35 33 31 29 27 26 24 23 21 20 19 19 18 16 16 16 16 15 14 13 12 11 10 11 10 11 11 10 10 8 7 6 5 5 5 4 4 5 4 4 3 2 1 1 1 2 2 2 2 1 1 1 1 2 3 3 3 5 4 4 5 4 3 3 2 1 1 2 2 3 4 5 6 6 6 6 6 6 7 7 7 6
35 36 36 35 34 33 30 29 27 25 24 22 21 20 20 19 17 16 17 16 15 14 13 12 12 11 12 12 12 12 11 10 9 8 6 5 5 5 4 4 4 4 3 2 1 1 1 2 2 1 1 2 2 1 1 1 1 2 2 2 3 3 2 3 5 4 4 4 3 3 2 3 4 3 4 6 6 7 7 7 7 7 7 7 7
37 37 36 35 34 33 31 30 28 27 26 24 23 22 21 20 19 18 18 17 16 15 14 13 12 12 13 13 13 12 11 10 8 8 7 6 7 6 4 4 4 3 3 2 1 1 0 1 0 1 2 3 3 3 0 1 1 1 1 1 2 3 1 1 1 2 3 4 4 5 4 3 3 3 4 5 6 8 7 7 7 7 8 7 8
37 37 36 35 34 33 32 30 29 28 27 26 24 23 22 21 20 19 19 18 17 16 14 14 14 14 14 13 13 12 11 10 8 8 7 6 7 7 6 5 4 4 4 3 2 1 0 1 2 2 4 4 4 5 3 1 1 2 1 0 1 2 2 2 2 1 2 2 4 5 6 5 4 2 3 5 5 7 7 7 7 8 8 7 8
36 36 36 36 34 34 32 31 30 28 27 26 25 24 23 22 21 20 19 18 17 16 15 15 15 14 14 14 13 12 11 10 9 8 7 6 7 7 7 6 5 5 5 4 4 2 2 2 3 4 5 4 3 4 4 3 2 2 2 2 2 2 2 1 2 2 2 3 3 4 5 6 5 3 2 4 3 4 5 6 8 8 8 7 8
36 37 37 36 35 34 32 31 30 28 27 26 25 24 23 22 21 20 19 18 17 17 16 16 16 15 15 14 13 13 11 10 10 9 8 7 7 7 7 7 7 7 6 5 5 4 3 3 5 7 7 6 5 3 2 4 3 2 3 4 6 5 2 1 2 3 3 4 4 4 4 5 6 5 3 3 1 2 4 5 7 9 8 7 8
37 37 37 37 36 34 32 31 29 29 28 27 25 24 23 22 21 21 19 19 18 17 17 17 16 15 15 14 13 13 11 10 10 10 8 7 7 7 7 7 7 7 6 5 5 4 4 4 7 9 8 8 8 4 2 4 5 4 5 6 8 7 3 2 2 3 4 4 4 3 4 4 5 5 5 4 2 1 4 6 7 8 9 9 9
37 37 37 36 35 33 32 31 30 29 28 27 26 24 24 23 22 21 20 19 18 18 18 17 17 16 15 15 14 13 12 11 10 10 8 8 7 7 7 6 6 7 7 6 5 5 4 6 8 9 9 10 8 6 4 3 6 7 6 6 7 6 3 2 2 3 4 4 3 2 3 4 4 5 4 3 2 1 2 4 6 7 8 8 9
37 36 36 34 33 33 32 32 30 29 28 27 26 25 24 23 22 21 20 19 19 19 18 18 17 16 16 15 14 13 12 12 11 10 9 8 8 7 6 6 6 7 7 6 6 6 5 7 9 10 10 11 9 7 6 5 6 7 7 7 6 5 2 1 1 2 3 1 1 1 3 4 3 4 4 3 2 1 1 3 4 6 6 6 7
37 35 34 34 33 33 31 31 30 29 28 27 26 25 24 23 22 21 20 19 20 20 19 19 18 17 16 16 15 14 13 12 12 11 10 10 9 8 7 6 7 7 7 7 7 7 7 8 9 11 12 13 10 7 8 7 6 6 7 6 5 4 2 2 2 2 1 1 2 0 2 3 3 3 3 3 3 2 1 2 3 4 4 4 5
36 35 34 34 33 33 32 30 30 29 28 27 26 25 24 23 22 21 21 20 20 20 20 20 19 18 17 17 16 15 14 13 13 12 11 11 10 9 7 7 8 8 7 8 8 8 8 9 10 11 13 14 12 8 8 8 6 6 7 6 5 5 3 3 3 2 2 2 2 0 1 2 2 2 2 3 3 3 3 2 3 3 3 3 4
35 35 34 34 33 32 32 31 30 29 28 27 26 26 25 24 23 22 22 22 21 21 21 20 19 19 18 18 17 16 15 14 13 13 11 11 10 8 8 8 8 8 8 8 8 9 8 9 10 11 12 13 13 11 9 8 7 6 6 6 6 5 4 4 4 3 2 2 2 1 1 2 3 4 3 3 3 4 4 3 3 2 2 4 5
36 36 35 34 33 33 32 32 31 30 29 28 27 26 25 25 24 23 23 23 23 23 22 22 21 20 19 18 17 17 16 15 14 13 11 10 10 9 8 8 9 9 9 9 8 9 9 9 11 12 13 12 12 11 10 8 7 5 5 6 6 6 5 5 5 4 3 2 2 2 1 3 4 5 5 4 4 3 3 3 3 3 2 2 4
36 36 36 35 34 34 33 33 32 31 30 29 28 28 27 27 26 25 25 25 24 24 23 23 22 21 20 19 18 17 17 15 14 14 12 11 10 9 9 9 9 10 9 8 8 9 9 10 11 12 12 11 10 10 9 8 7 7 6 6 7 8 8 7 6 5 4 3 2 1 1 3 4 5 6 6 5 4 3 3 3 3 3 3 2
38 37 37 36 35 35 34 33 32 31 31 31 30 30 29 29 28 28 28 26 25 25 24 24 23 22 21 20 19 18 17 16 15 15 13 12 11 10 9 10 10 9 8 8 8 9 9 10 11 12 11 10 10 9 8 7 7 7 6 7 8 10 11 9 8 7 6 4 3 2 0 2 4 5 6 6 6 5 4 5 5 4 4 3 3
39 39 38 36 36 36 35 34 33 32 32 32 31 31 31 30 29 28 27 26 26 25 25 24 24 23 21 20 20 19 18 17 16 16 14 13 12 11 10 10 10 9 8 8 8 9 9 10 11 12 10 10 9 8 8 7 6 6 6 6 8 9 10 9 8 9 8 7 5 4 2 1 3 4 5 6 5 5 6 6 6 5 4 3 3
39 39 38 37 37 37 36 36 35 34 33 32 32 32 31 29 28 27 26 26 26 25 25 25 24 23 21 21 20 20 19 18 17 17 16 14 13 12 11 11 10 10 9 9 9 9 10 10 11 11 10 10 9 8 8 6 6 7 6 6 5 5 6 7 9 9 9 9 8 6 4 2 1 3 5 5 5 6 7 7 7 5 4 3 3
40 40 40 40 39 38 37 37 35 35 34 33 33 32 31 29 28 28 26 26 25 25 25 25 25 24 23 22 21 20 19 19 18 18 17 15 13 13 12 12 11 11 10 10 10 10 10 11 11 10 10 10 8 8 8 7 7 7 5 4 4 4 4 5 7 9 9 9 9 9 6 4 1 1 3 3 4 6 6 7 6 6 5 4 3
43 42 42 41 41 39 38 37 36 36 35 34 34 32 31 30 30 29 28 28 27 27 27 27 27 26 25 23 22 21 20 20 20 19 18 16 14 14 14 13 12 12 11 11 10 10 11 11 10 10 11 9 7 7 8 8 8 8 6 4 3 4 4 4 5 7 8 9 10 11 8 5 4 2 1 1 2 4 5 6 6 6 6 5 4
45 44 43 41 41 40 38 37 37 36 36 35 34 33 32 32 32 32 32 32 31 30 30 29 28 27 26 24 22 21 21 21 20 20 19 18 16 15 14 14 13 12 12 11 11 11 11 11 11 11 11 9 7 7 7 8 9 9 9 7 5 4 2 3 5 5 7 9 10 10 9 7 6 4 3 2 2 3 3 5 5 6 6 6 6
46 44 43 42 42 41 40 38 37 37 37 36 35 34 34 34 34 34 33 33 32 32 30 29 27 26 25 24 22 21 21 21 20 20 20 19 18 16 15 15 14 13 13 13 12 12 12 12 12 12 11 10 9 8 7 8 9 9 9 9 8 5 3 3 5 5 5 7 9 10 9 8 7 7 5 5 5 4 2 2 3 4 4 5 6
46 45 45 44 43 43 41 39 38 38 37 37 35 35 34 34 35 35 34 33 32 31 30 28 27 26 25 24 23 22 21 20 20 20 20 20 19 17 16 16 15 14 14 14 13 13 13 13 13 12 11 11 10 9 8 9 9 9 10 10 9 8 6 4 4 5 5 6 8 9 10 9 9 9 8 8 7 7 5 2 1 2 2 3 4
46 46 46 45 45 44 42 41 40 39 39 38 37 36 35 35 35 35 35 34 32 32 31 29 28 27 25 25 24 22 21 21 21 21 21 20 19 18 17 17 16 16 15 15 14 14 13 13 13 13 12 11 11 10 9 9 9 10 10 10 10 10 9 8 6 6 7 6 7 8 9 10 10 11 11 10 9 8 7 5 2 1 1 0 1
47 47 47 46 46 45 44 43 42 41 40 39 38 37 36 36 36 36 35 34 33 33 32 31 30 29 27 26 24 23 22 22 22 22 22 21 20 18 18 18 17 16 16 16 15 15 14 13 13 13 12 12 11 10 9 9 10 11 11 11 11 10 10 10 9 8 8 8 8 8 8 9 10 11 12 12 11 10 9 7 5 3 2 1 2
47 47 48 47 47 46 46 45 44 42 42 40 39 39 38 38 37 37 36 35 34 34 33 32 32 31 29 28 26 24 23 23 23 23 23 22 21 20 19 18 18 17 17 17 16 15 14 13 13 13 12 12 11 11 9 9 11 12 12 12 11 10 9 9 9 9 8 8 8 7 8 8 9 10 11 12 12 11 10 9 7 6 5 4 3
Wind_Direction
128 127 126 129 130 134 135 139 141 139 138 138 138 135 134 135 135 136 137 139 140 138 135 133 130 127 126 123 118 111 104 100 97 93 90 87 87 87 88 89 93 95 97 99 100 99 98 98 99 98 92 85 77 73 67 64 68 66 61 63 77 91 92 91 93 95 104 111 115 118 112 109 110 103 95 92 92 103 110 113 115 113 114 116 114
131 129 129 131 132 136 136 138 140 140 139 140 140 136 137 139 139 139 140 142 142 139 136 133 130 127 125 122 117 110 104 100 96 93 91 89 89 90 92 92 93 94 94 95 97 98 97 96 98 98 93 85 80 80 74 70 74 72 65 64 72 86 93 91 90 94 99 106 118 117 112 113 108 101 97 97 100 107 110 112 115 115 121 119 115
133 130 130 132 133 137 137 140 140 141 141 143 143 139 140 142 142 142 143 145 144 140 137 133 129 127 125 121 115 109 104 100 97 96 94 93 92 90 91 92 92 91 90 92 93 94 94 94 96 96 93 88 86 86 78 75 79 79 74 70 72 80 90 93 94 96 100 107 118 117 115 113 103 101 100 102 108 110 110 111 113 116 124 121 119
136 131 130 131 131 136 139 142 144 145 144 147 146 141 143 145 147 146 146 147 145 140 137 134 130 128 124 120 115 109 104 101 100 99 98 95 93 91 89 89 89 88 87 87 87 88 88 88 88 87 86 86 87 89 84 82 88 89 82 77 75 78 84 91 98 102 102 107 115 116 114 109 102 103 104 105 109 112 111 110 112 115 122 124 124
138 133 132 131 131 135 137 141 147 149 148 149 147 144 147 149 150 148 149 149 144 140 138 134 130 127 124 120 114 108 104 104 104 102 100 96 94 92 90 89 87 86 86 84 83 83 83 83 82 83 83 82 83 88 90 85 93 94 86 83 77 75 83 91 99 109 111 111 113 115 115 110 107 108 108 108 109 113 112 110 111 111 117 126 127
141 137 134 133 134 137 137 140 144 148 150 148 147 149 150 151 151 150 151 148 144 142 139 134 131 128 126 120 111 106 106 107 105 102 100 98 96 93 91 90 88 85 83 85 87 86 85 87 86 86 84 83 80 82 88 82 88 90 80 83 81 73 80 93 99 107 115 115 112 111 115 113 111 111 111 110 110 111 113 111 109 109 113 121 129
144 138 137 137 136 140 140 140 141 145 148 146 148 151 151 151 151 151 150 147 146 143 139 136 133 131 127 118 109 106 105 105 102 100 98 97 95 94 93 90 89 84 82 83 85 86 86 89 89 89 85 84 83 86 93 85 86 92 82 80 86 77 75 88 96 103 110 114 115 115 119 118 114 114 112 110 109 109 112 111 109 109 109 113 123
146 139 140 139 139 142 143 143 144 145 146 147 152 152 150 151 152 151 149 147 146 143 141 139 136 131 126 117 109 105 101 101 99 97 96 95 95 94 95 93 91 86 83 83 82 81 83 86 87 88 87 87 87 94 100 93 91 96 93 87 89 85 78 82 92 99 104 111 117 120 125 123 117 117 116 112 109 108 110 112 112 112 110 108 112
147 142 143 141 142 144 144 147 148 148 149 151 152 151 151 153 153 152 149 148 147 144 142 141 137 130 125 120 113 105 98 98 97 95 94 94 95 94 93 94 94 92 89 87 86 83 85 89 89 91 91 92 92 95 99 95 95 96 99 101 101 94 81 80 92 98 100 107 114 122 129 127 123 122 121 118 113 109 110 112 115 116 115 111 109
149 146 146 144 146 146 146 150 150 151 152 152 151 152 153 153 154 152 151 149 147 144 144 143 136 129 126 123 116 106 96 95 95 94 94 94 93 93 91 93 96 97 96 93 93 91 92 91 92 93 90 93 96 98 96 96 96 96 101 107 111 107 92 84 92 100 105 108 115 127 133 133 131 130 126 123 117 109 110 112 117 119 120 121 117
152 150 148 147 149 148 148 152 153 153 153 152 153 154 154 154 154 152 151 149 146 144 145 142 134 129 127 124 118 107 96 92 94 93 92 93 91 92 92 93 95 96 95 94 91 89 90 90 90 89 88 90 93 98 100 101 103 102 105 106 105 112 110 98 93 101 112 114 117 127 132 136 138 139 135 129 124 118 114 113 117 118 119 124 125
155 153 151 150 152 151 151 154 154 154 154 154 155 156 155 154 154 152 151 148 144 142 141 137 133 131 127 124 119 108 97 94 95 94 93 93 92 93 93 93 93 92 92 91 90 87 83 84 85 84 85 85 88 96 99 102 109 112 111 112 111 117 124 112 97 97 110 119 119 124 129 139 146 144 142 138 133 128 122 115 116 119 116 119 123
157 156 154 153 154 154 154 155 155 156 156 157 157 157 156 155 154 153 152 149 144 140 137 134 133 131 127 124 118 107 99 98 98 95 93 95 95 95 93 93 94 94 92 88 87 88 86 84 82 79 78 81 86 94 96 96 104 115 114 115 118 121 130 123 105 98 107 123 123 129 134 143 147 145 148 146 138 134 129 118 116 122 119 113 114
159 158 157 156 156 158 158 158 158 158 158 159 159 159 158 158 157 156 155 151 146 140 136 132 133 129 126 121 114 109 103 102 101 97 95 98 98 97 95 93 94 95 95 91 87 86 86 82 80 76 72 73 78 84 89 89 95 105 106 106 113 121 133 132 115 103 112 123 125 133 140 144 145 151 155 147 143 140 135 125 118 122 123 118 113
161 160 160 159 159 161 162 162 161 161 161 161 162 163 162 162 161 161 159 154 148 143 140 132 132 128 124 118 112 113 109 108 106 102 100 102 103 101 98 94 94 93 92 91 87 83 80 78 76 74 72 70 73 78 81 84 91 97 100 102 109 122 135 135 120 104 113 126 127 129 137 146 148 159 154 139 149 149 141 133 122 119 123 125 121
164 163 163 163 162 163 165 165 166 165 165 165 167 168 167 167 166 166 163 157 151 148 144 135 131 125 122 118 115 119 117 114 110 107 105 107 109 106 102 97 95 92 91 89 86 83 79 78 77 77 77 74 74 79 82 83 86 87 91 98 112 130 140 139 128 112 111 122 127 127 134 148 147 152 147 134 149 150 140 131 123 120 120 124 128
168 167 166 166 166 166 168 168 170 170 170 170 171 173 173 172 171 172 168 162 157 156 152 140 131 126 125 121 118 125 126 120 115 111 109 111 114 111 109 104 99 96 95 92 90 88 84 82 80 80 78 76 75 75 81 78 73 73 77 89 106 129 143 147 137 122 115 116 119 126 138 150 146 148 146 131 136 146 135 124 121 124 121 120 125
171 171 169 169 169 170 172 172 173 174 174 174 176 176 176 177 177 177 174 169 166 165 162 149 138 133 132 127 123 130 132 126 121 117 114 116 118 119 118 115 108 104 102 97 95 94 92 89 85 82 78 74 72 67 68 70 69 69 74 86 100 117 138 150 141 129 120 114 113 125 148 156 151 155 144 128 136 147 134 126 129 133 132 124 119
174 174 172 172 173 173 174 175 175 176 178 178 179 180 180 181 182 183 180 177 175 178 175 165 153 146 142 138 132 134 137 134 130 127 123 120 122 127 130 127 116 111 109 104 102 101 99 94 89 84 79 71 66 62 59 61 65 69 74 81 93 102 113 132 143 139 131 124 120 127 156 168 161 158 137 129 141 143 130 134 144 146 144 135 122
178 178 175 175 176 176 177 178 178 179 181 182 181 181 183 184 186 188 188 187 188 192 189 179 168 161 156 151 142 139 143 143 138 136 131 125 126 130 136 133 123 117 116 118 114 109 104 99 96 90 85 77 69 70 66 56 50 61 74 78 84 88 89 103 123 132 137 132 129 133 153 168 168 158 145 146 149 143 137 146 159 157 152 147 131
180 181 178 178 179 179 180 180 182 183 183 185 184 183 185 187 191 194 195 198 199 203 198 187 178 176 172 163 153 146 149 151 146 144 138 132 132 131 136 137 129 124 123 128 127 117 108 99 96 90 85 79 71 72 72 62 44 43 56 66 69 73 78 84 95 101 107 117 128 140 146 160 168 161 160 164 159 154 149 152 170 165 162 165 147
180 182 181 181 181 180 181 183 184 185 185 187 186 186 188 190 194 197 199 200 202 204 198 190 186 185 184 174 162 154 156 158 154 153 151 145 146 143 140 140 138 137 135 135 132 124 114 97 85 81 76 69 67 65 67 65 53 42 42 46 43 54 75 84 89 80 72 84 102 132 145 155 167 168 168 171 169 170 162 161 177 173 172 173 159
181 183 182 182 183 182 181 185 186 184 185 186 187 188 190 193 195 195 197 199 200 200 196 192 191 191 189 181 170 164 164 163 162 161 162 161 163 165 158 150 147 148 149 142 130 120 113 100 79 72 69 65 71 70 62 57 50 41 40 45 42 45 54 69 102 74 56 67 73 93 142 157 169 173 176 178 177 179 175 173 183 178 176 177 170
183 184 183 182 184 185 183 186 187 183 184 185 186 187 188 193 194 193 195 198 198 197 196 194 195 196 192 185 177 174 172 169 170 168 166 168 170 174 174 163 156 157 158 148 132 119 108 99 80 69 67 63 77 79 69 54 40 29 28 40 44 44 42 43 60 53 51 73 67 60 105 158 180 183 188 190 186 185 183 183 189 188 185 186 184
184 185 187 185 183 185 185 188 189 185 185 185 186 188 188 193 196 196 196 197 198 197 200 197 197 198 192 188 183 182 182 179 178 176 175 174 173 174 180 175 165 165 166 158 141 128 111 103 94 83 69 64 75 83 82 62 41 26 23 29 31 34 34 35 36 17 246 126 46 22 57 165 189 195 201 204 197 192 191 190 194 198 196 199 196
186 188 189 188 186 186 186 188 189 188 189 188 189 191 193 196 199 200 199 200 201 201 204 200 199 197 191 189 187 188 188 187 187 184 187 183 178 178 182 183 171 172 176 166 152 143 118 89 79 80 68 66 91 135 109 69 47 33 33 28 19 20 24 31 42 44 60 98 348 336 302 238 212 206 210 214 209 198 197 194 197 205 202 204 209
188 189 189 190 190 189 188 188 188 190 192 193 194 197 199 200 200 203 204 205 206 208 207 202 200 198 193 191 189 192 192 194 194 191 194 188 186 188 187 187 181 185 190 179 169 159 82 34 32 46 46 51 35 251 205 115 59 49 47 40 23 16 21 33 47 60 58 41 14 337 301 281 252 223 213 213 215 214 212 204 203 209 203 203 209
189 190 190 191 191 190 191 192 191 192 195 196 199 203 204 203 202 206 209 210 211 212 211 204 202 201 196 193 192 194 195 198 198 197 199 191 194 200 193 191 192 196 204 207 191 174 31 24 30 26 18 36 17 342 208 221 85 80 73 73 33 11 17 45 49 59 55 43 34 14 347 291 265 238 218 209 210 218 219 215 215 214 208 206 209
192 192 192 192 192 192 193 195 196 196 199 200 203 205 207 208 206 208 211 213 214 213 213 208 206 204 199 195 194 197 199 200 200 200 200 194 199 206 204 198 201 207 208 210 188 172 58 16 346 308 316 335 337 327 248 207 246 159 91 88 53 18 341 261 26 36 33 32 34 27 20 341 292 254 234 218 208 216 219 219 223 223 216 210 215
194 194 194 194 194 195 197 198 199 200 203 205 206 207 208 210 209 211 212 213 215 214 213 211 209 206 201 198 196 198 200 200 201 201 198 195 201 208 212 212 216 231 227 221 217 203 217 266 274 290 307 326 326 319 323 315 283 266 261 26 41 25 351 271 260 320 342 359 20 18 20 11 337 294 255 239 216 219 223 219 225 231 227 216 221
195 196 196 197 197 198 200 201 202 203 206 207 209 209 209 210 210 211 212 214 216 215 214 211 209 206 202 200 199 200 202 202 202 202 199 197 205 211 216 220 227 241 241 241 249 255 267 284 295 284 288 310 323 325 322 305 312 285 262 284 305 341 354 299 268 273 304 321 345 354 3 9 353 341 278 261 244 235 237 227 227 231 233 225 227
197 198 198 199 200 201 202 202 204 205 207 209 209 209 209 209 209 211 213 214 216 216 215 212 209 206 203 203 201 201 204 205 204 205 204 204 213 218 222 227 231 242 249 256 264 274 290 299 291 287 298 312 317 340 326 293 295 279 277 295 307 313 307 289 302 289 287 301 324 342 344 348 348 355 347 323 319 245 240 231 229 228 227 227 231
198 200 200 201 202 202 203 204 205 206 208 208 209 208 209 209 210 211 213 214 216 216 215 213 209 206 206 206 203 203 206 208 207 208 210 212 219 225 231 236 239 249 260 265 268 280 297 295 288 296 311 310 310 332 334 284 266 267 288 298 309 314 284 256 300 298 286 285 302 331 331 329 334 339 348 6 15 251 233 227 232 231 223 221 226
199 200 202 202 202 203 204 205 205 206 207 207 208 208 209 211 212 213 215 215 217 217 215 213 210 207 208 207 206 207 209 210 209 211 215 217 222 228 233 240 248 255 265 270 273 281 290 293 294 302 308 309 312 313 307 282 259 266 283 293 313 323 277 256 298 304 296 279 278 326 329 323 322 317 333 9 23 298 257 240 241 242 232 227 227
201 201 203 203 204 204 204 205 205 205 206 206 208 209 211 213 214 216 217 218 219 218 216 214 211 209 209 209 209 211 212 213 212 215 219 221 226 231 232 236 245 253 264 273 278 282 286 291 296 301 303 309 311 288 277 282 267 265 276 285 313 327 279 254 290 295 305 259 201 351 340 328 319 304 309 336 357 15 295 265 251 251 246 244 242
204 203 203 204 206 207 206 206 206 206 206 208 210 212 214 215 218 219 220 221 222 221 218 216 214 211 211 212 212 213 216 216 216 219 222 227 234 238 238 237 242 252 264 275 282 285 288 288 293 301 302 307 309 279 261 274 274 265 272 282 305 314 276 237 245 248 278 183 177 315 349 345 334 307 298 306 319 340 315 282 275 271 261 258 254
206 205 205 205 207 208 209 209 209 209 210 211 213 215 217 218 220 221 222 223 224 223 220 218 216 214 214 214 213 215 217 218 219 223 225 230 238 243 244 244 248 255 263 273 281 284 288 290 293 301 302 307 310 292 271 273 273 261 262 267 278 293 273 238 238 239 248 224 214 294 24 17 18 357 327 309 307 315 319 311 303 289 273 267 260
208 208 207 208 209 210 211 211 213 214 215 216 217 218 219 220 222 222 224 224 225 225 223 221 218 217 217 216 216 217 219 219 220 222 226 231 237 240 243 250 255 259 265 271 279 283 289 294 298 301 299 302 304 302 298 286 273 261 255 253 252 274 280 249 243 255 257 232 208 157 71 38 28 19 5 348 324 316 316 319 323 298 265 257 261
210 210 210 211 211 213 214 214 215 217 218 220 221 222 222 222 223 223 224 223 224 224 223 221 219 218 219 218 219 220 219 219 218 220 225 230 234 240 246 255 261 263 267 273 279 284 290 294 296 298 297 298 297 298 301 293 287 277 254 249 247 263 282 262 242 249 254 220 180 167 88 51 31 17 15 15 358 342 331 326 337 337 320 275 266
213 212 212 212 213 215 216 216 218 219 220 221 222 222 222 222 222 222 223 222 222 222 221 220 219 219 219 219 220 221 221 219 218 220 225 229 234 242 249 255 260 263 268 275 281 283 287 290 292 295 296 298 297 293 291 292 296 289 264 253 249 259 279 267 241 236 237 214 183 199 48 49 36 20 13 17 17 13 9 2 6 2 356 348 322
215 215 214 214 214 216 217 218 219 219 220 220 220 221 220 221 220 221 221 221 221 220 220 220 220 220 220 220 221 221 222 221 220 222 226 230 235 242 249 253 258 265 270 275 279 282 285 291 294 295 296 301 301 295 286 281 281 277 264 257 255 264 278 269 241 234 235 226 224 238 334 24 27 24 9 9 17 22 29 34 33 26 14 1 353
216 216 215 214 215 216 218 219 219 220 220 220 220 220 220 221 221 221 221 222 222 221 222 222 222 222 221 221 222 222 222 223 224 226 227 231 237 243 248 253 258 264 271 275 280 286 290 295 296 294 297 301 300 290 281 276 266 256 248 254 263 269 274 260 235 232 235 232 234 241 254 319 8 17 6 8 24 43 56 57 50 42 33 14 351
217 216 215 215 216 216 218 219 220 220 221 221 221 221 221 222 223 224 224 225 226 226 226 226 226 226 225 223 223 224 224 226 228 229 230 233 238 243 248 252 256 261 269 276 281 288 292 294 295 294 295 297 296 286 275 262 251 251 249 254 256 255 255 241 230 232 234 234 233 238 246 248 1 10 0 13 49 72 71 63 53 42 30 6 331
220 218 217 216 215 215 217 218 219 220 221 221 221 221 222 223 225 226 227 228 230 231 231 230 229 228 227 225 225 225 226 228 231 233 234 236 239 244 247 250 255 259 266 273 279 286 290 291 293 292 290 291 295 289 275 255 244 247 247 246 231 219 227 222 226 234 234 232 230 232 239 238 221 7 352 13 81 96 76 61 52 39 27 4 331
222 220 218 216 215 214 215 216 218 219 220 220 221 221 221 222 224 226 228 229 230 231 231 230 229 228 227 225 225 225 227 229 232 235 237 238 241 243 246 250 254 258 264 271 278 283 286 288 290 288 284 284 284 278 270 257 249 247 240 226 200 203 220 213 220 236 233 224 223 228 238 239 217 204 304 337 127 116 81 64 58 44 34 26 15
222 220 219 217 215 214 213 215 218 219 220 221 221 221 221 221 222 223 224 225 226 227 228 229 229 228 228 227 226 226 228 230 232 235 238 239 240 242 244 248 253 258 264 270 276 282 286 286 286 284 282 280 271 261 257 256 257 255 242 223 195 178 192 212 217 230 229 220 221 228 238 238 216 200 215 217 190 150 97 69 57 46 36 33 34
222 221 221 220 218 217 215 215 217 219 220 221 220 220 220 221 222 223 224 225 226 227 229 230 230 230 230 230 229 229 229 231 233 235 238 239 240 240 243 247 252 257 262 268 274 280 282 282 282 282 282 278 271 261 250 254 260 254 237 223 212 192 174 209 217 222 229 225 225 228 237 238 219 208 211 211 205 192 167 82 59 47 40 38 44
222 223 223 221 219 218 217 216 217 219 221 221 221 220 220 221 222 224 225 227 229 230 232 232 232 231 231 232 231 230 231 232 234 237 238 239 239 240 242 246 250 254 259 266 272 275 277 280 281 282 283 280 279 271 253 250 252 245 233 224 222 219 217 229 227 225 231 236 236 234 240 243 229 220 218 215 212 208 216 215 102 52 40 42 59
223 223 223 222 221 220 220 219 219 220 221 221 221 221 221 222 223 225 226 228 230 232 234 234 235 234 231 232 232 231 232 233 235 237 238 239 240 241 243 245 248 253 259 265 268 271 275 278 279 281 284 282 280 274 259 250 238 233 233 228 229 231 233 241 245 238 236 240 244 243 249 253 244 233 224 220 220 218 225 231 217 179 66 42 107
224 224 225 224 225 224 223 223 222 221 222 222 222 222 222 223 224 226 227 229 229 231 233 234 235 235 233 233 232 231 232 232 233 235 236 238 240 241 243 245 248 252 257 260 263 268 272 273 274 277 279 278 274 268 260 248 231 227 234 233 232 235 237 244 249 249 247 248 250 248 251 253 251 246 236 227 227 227 234 240 237 232 238 252 216
225 226 227 227 228 228 227 226 225 224 224 224 224 224 224 224 225 226 227 229 229 230 231 233 233 234 234 233 232 232 232 233 233 235 235 237 240 241 243 245 248 250 253 257 260 265 268 266 268 271 272 273 270 262 254 240 227 226 232 235 234 237 243 248 248 248 249 252 255 250 247 247 250 255 249 237 233 235 241 247 248 245 248 258 254